Regional Weather Roundup
Issued by NWS Albany, NY

Current Version | Previous Version | Graphics & Text | Print | Product List | Glossary Off
Versions: 1 2 3 4 5 6 7 8 9 10 11 12 13 14 15 16 17 18 19 20 21 22 23 24 25 26 27 28

000
ASUS41 KALY 151510
RWRALY

NEW YORK STATE HOURLY WEATHER ROUNDUP
NATIONAL WEATHER SERVICE ALBANY NY
1000 AM EST MON JAN 15 2018

NOTE: "FAIR" INDICATES FEW OR NO CLOUDS BELOW 12,000 FEET WITH NO
SIGNIFICANT WEATHER AND/OR NO OBSTRUCTIONS TO VISIBILITY.

NYZ032-033-038>043-046>054-057>066-NYZ062>081-082-084-151600-
EAST


CITY           SKY/WX    TMP DP  RH WIND       PRES   REMARKS
ALBANY         PTSUNNY    9   0  67 N6        30.78S WCI  -1
GLENS FALLS    FAIR       6   0  76 N7        30.78  WCI  -6
POUGHKEEPSIE   CLOUDY    13   4  67 N6        30.72F WCI   4
NEWBURGH       PTSUNNY   16   9  73 VRB5      30.69S WCI   9
MONTGOMERY     FAIR      17   5  59 NE9       30.67S WCI   6
WHITE PLAINS   PTSUNNY   21  10  62 NE7       30.64S WCI  12
ISLIP          CLOUDY    24  16  71 NE16G23   30.66S WCI  11
NEW YORK CITY  FAIR      24  14  65 NE17      30.67R WCI  11
CENTRAL PARK   FAIR      23  12  62 NE9       30.68F WCI  13
$$

NYZ005>009-017-018-044>046-055-056-151600-
CENTRAL


CITY           SKY/WX    TMP DP  RH WIND       PRES   REMARKS
FULTON         FAIR       8   0  69 VRB5      30.64F WCI   0
SYRACUSE       FAIR       4   0  83 E12       30.65F WCI -12
ROME           FAIR       5  -1  76 SE9       30.71R WCI  -9
ELMIRA         FAIR       4   0  83 CALM      30.57F
BINGHAMTON     CLOUDY     4  -1  80 SE8       30.51R WCI  -9
MONTICELLO     FAIR      16   9  74 E13G20    30.58F WCI   2
$$

NYZ026>034-041>043-087-151600-
NORTH


CITY           SKY/WX    TMP DP  RH WIND       PRES   REMARKS
WATERTOWN      FAIR      13  -6  42 NE12      30.68F WCI  -1
FORT DRUM      NOT AVBL
OGDENSBURG     FAIR       1  -5  76 NE9       30.75S WCI -15
MASSENA        FAIR      -3  -9  75 NE14      30.80F WCI -22
SARANAC LAKE   FAIR      -3  -9  75 NE6       30.58S WCI -15
PLATTSBURGH    FAIR      -6  -9  86 CALM      30.82S
$$

NYZ001>004-010>016-019>021-085-151600-
WEST


CITY           SKY/WX    TMP DP  RH WIND       PRES   REMARKS
NIAGARA FALLS  FAIR      12   1  61 E9        30.50F WCI   0
BUFFALO        PTSUNNY   12   2  64 E8        30.49F WCI   0
DUNKIRK        FAIR      13   4  67 N6        30.46F WCI   4
JAMESTOWN      CLOUDY    10   2  69 S7        30.38S WCI  -1
WELLSVILLE     FAIR       9   1  70 MISG      30.40F
ROCHESTER      PTSUNNY    8   3  80 SE8       30.58F WCI  -4
PENN YAN       FAIR       6   2  83 W3        30.55F
$$

             KEY
       WCI = WIND CHILL INDEX
       VSB = VISIBILITY
       HX  = HEAT INDEX
$$




USA.gov is the U.S. government's official web portal to all federal, state and local government web resources and services.